Regional Weather Roundup
Issued by NWS

Home | Current Version | Previous Version | Text Only | Print | Product List | Glossary Off
Versions: 1 2 3 4 5 6 7 8 9 10 11 12 13 14 15 16 17 18 19 20 21 22 23 24 25 26 27 28 29 30 31 32 33 34 35 36 37 38 39 40 41 42 43 44 45 46 47 48 49 50

000
ASUS43 KMKX 301210
RWRWI

WISCONSIN REGIONAL WEATHER ROUNDUP
NATIONAL WEATHER SERVICE MILWAUKEE/SULLIVAN WI
700 AM CDT MON MAR 30 2015

NOTE: "FAIR" INDICATES FEW OR NO CLOUDS BELOW 12,000 FEET WITH NO
SIGNIFICANT WEATHER AND/OR OBSTRUCTIONS TO VISIBILITY.

WIZ001-002-006>008-014>016-023>028-301300-
NORTHWEST WISCONSIN

CITY           SKY/WX    TMP DP  RH WIND       PRES   REMARKS
SUPERIOR ARPT  CLEAR     30  26  83 SW7       29.93R WCI  23
6HR MIN TEMP:  30; 6HR MAX TEMP:  35;

ASHLAND        CLEAR     33  25  72 SW7       29.92R WCI  27
6HR MIN TEMP:  32; 6HR MAX TEMP:  37;

HAYWARD        CLEAR     25  22  88 S3        29.93R
6HR MIN TEMP:  25; 6HR MAX TEMP:  35;

SIREN          CLEAR     32  25  76 CALM      29.94R
6HR MIN TEMP:  30; 6HR MAX TEMP:  37;

CUMBERLAND     CLEAR     32  27  80 W7        29.94R WCI  26
RICE LAKE      CLEAR     31  25  80 CALM      29.96R
6HR MIN TEMP:  30; 6HR MAX TEMP:  36;

CHETEK         CLEAR     29  24  82 CALM      29.95R
6HR MIN TEMP:  29; 6HR MAX TEMP:  38;

LADYSMITH      CLEAR     30  26  84 W3        29.94R
6HR MIN TEMP:  29; 6HR MAX TEMP:  35;

EAU CLAIRE     CLOUDY    35  26  69 CALM      29.96R
6HR MIN TEMP:  28; 6HR MAX TEMP:  36;

MENOMONIE      CLOUDY    32  28  85 CALM      29.97R
6HR MIN TEMP:  32; 6HR MAX TEMP:  40;

NEW RICHMOND   CLEAR     31  27  88 SW3       29.97R
6HR MIN TEMP:  31; 6HR MAX TEMP:  37;

OSCEOLA        PTCLDY    30  30  99 SE3       29.99R
6HR MIN TEMP:  30; 6HR MAX TEMP:  37;

$$

WIZ003>005-009-010-017-018-301300-
NORTH CENTRAL WISCONSIN

CITY           SKY/WX    TMP DP  RH WIND       PRES   REMARKS
MANITOWISH WTR CLEAR     29  26  85 W8        29.87R WCI  22
6HR MIN TEMP:  29; 6HR MAX TEMP:  32;

ARBOR VITAE    CLEAR     32  26  78 W5        29.87R WCI  27
6HR MIN TEMP:  32; 6HR MAX TEMP:  37;

WOODRUFF       CLEAR     32  26  78 W5        29.87R WCI  27
6HR MIN TEMP:  32; 6HR MAX TEMP:  37;

RHINELANDER    CLEAR     31  24  75 W9        29.87R WCI  23
6HR MIN TEMP:  30; 6HR MAX TEMP:  32;

EAGLE RIVER    CLEAR     32  24  73 W8        29.84R WCI  24
6HR MIN TEMP:  31; 6HR MAX TEMP:  33;

LAND O LAKES   CLEAR     31  26  80 W3        29.84R
6HR MIN TEMP:  31; 6HR MAX TEMP:  33;

PHILLIPS       CLEAR     30  25  82 CALM      29.90R
6HR MIN TEMP:  30; 6HR MAX TEMP:  32;

TOMAHAWK       CLEAR     32  25  74 W8        29.90R WCI  25
6HR MIN TEMP:  32; 6HR MAX TEMP:  34;

MEDFORD        CLEAR     32  26  76 W9        29.91R WCI  25
6HR MIN TEMP:  32; 6HR MAX TEMP:  34;

MERRILL        CLEAR     31  26  83 W9        29.90R WCI  23
6HR MIN TEMP:  30; 6HR MAX TEMP:  34;

$$

WIZ029-030-035-036-043>047-301300-
CENTRAL WISCONSIN

CITY           SKY/WX    TMP DP  RH WIND       PRES   REMARKS
WAUSAU         CLEAR     33  26  75 W12       29.89R WCI  24
6HR MIN TEMP:  33; 6HR MAX TEMP:  35;

MOSINEE        NOT AVBL
MARSHFIELD     CLEAR     33  25  72 W7        29.94R WCI  27
6HR MIN TEMP:  33; 6HR MAX TEMP:  37;

STEVENS POINT  CLEAR     32  25  74 W7        29.93R WCI  26
6HR MIN TEMP:  32; 6HR MAX TEMP:  35;

WAUPACA        CLEAR     38  27  64 W10G20    29.93R WCI  31
6HR MIN TEMP:  34; 6HR MAX TEMP:  39;

WAUTOMA        CLEAR     35  27  73 W8        29.95R WCI  28
6HR MIN TEMP:  27; 6HR MAX TEMP:  36;

WISC RAPIDS    CLEAR     32  24  72 W5        29.96R WCI  27
6HR MIN TEMP:  31; 6HR MAX TEMP:  34;

CAMP DOUGLAS   NOT AVBL
$$

WIZ011>013-019>022-031-037>040-048>050-301300-
NORTHEAST WISCONSIN

CITY           SKY/WX    TMP DP  RH WIND       PRES   REMARKS
ANTIGO         CLEAR     32  26  80 W10       29.88R WCI  24
6HR MIN TEMP:  32; 6HR MAX TEMP:  33;

SHAWANO        CLEAR     37  28  71 W10G16    29.88R WCI  29
6HR MIN TEMP:  35; 6HR MAX TEMP:  39;

OCONTO         CLEAR     34  28  79 W10       29.85R WCI  26
6HR MIN TEMP:  34; 6HR MAX TEMP:  35;

STURGEON BAY   CLEAR     36  27  69 W12       29.85R WCI  27
6HR MIN TEMP:  36; 6HR MAX TEMP:  36;

GREEN BAY      CLEAR     36  28  73 W14       29.88R WCI  27
6HR MIN TEMP:  35; 6HR MAX TEMP:  38;

MANITOWOC      CLEAR     37  29  72 W16       29.89R WCI  28
6HR MIN TEMP:  36; 6HR MAX TEMP:  39;

APPLETON       PTCLDY    30  25  80 W8        29.91R WCI  23
CLINTONVILLE   CLEAR     34  28  80 W12       29.89R WCI  25
OSHKOSH        CLEAR     35  26  69 W10       29.92R WCI  27
6HR MIN TEMP:  35; 6HR MAX TEMP:  38;

$$

WIZ032>034-041-042-053>061-301300-
SOUTHWEST WISCONSIN

CITY           SKY/WX    TMP DP  RH WIND       PRES   REMARKS
LA CROSSE      MOCLDY    34  27  75 SE6       29.99R WCI  29
6HR MIN TEMP:  30; 6HR MAX TEMP:  40;

SPARTA         MOCLDY    33  26  76 CALM      29.99R
6HR MIN TEMP:  29; 6HR MAX TEMP:  38;

VIROQUA        PTCLDY    33  28  79 SW6       29.99R WCI  28
6HR MIN TEMP:  33; 6HR MAX TEMP:  38;

BOSCOBEL       CLEAR     30  26  85 SW7       30.03R WCI  23
6HR MIN TEMP:  28; 6HR MAX TEMP:  41;

PRAIRIE DU CHI CLEAR     30  26  83 CALM      30.04R
6HR MIN TEMP:  30; 6HR MAX TEMP:  40;

PLATTEVILLE    CLEAR     33  29  84 SW6       30.03R WCI  28
6HR MIN TEMP:  33; 6HR MAX TEMP:  36;

$$

WIZ056-057-062-063-064-067-068-301300-
SOUTH CENTRAL WISCONSIN

CITY           SKY/WX    TMP DP  RH WIND       PRES   REMARKS
REEDSBURG      MOCLDY    28  26  91 CALM      29.98R
6HR MIN TEMP:  27; 6HR MAX TEMP:  33;

BARABOO/DELLS  CLEAR     35  26  71 W7        29.97R WCI  29
6HR MIN TEMP:  32; 6HR MAX TEMP:  37;

LONE ROCK      CLEAR     33  27  78 W5        30.01R WCI  29
6HR MIN TEMP:  33; 6HR MAX TEMP:  41;

MINERAL POINT  CLEAR     34  28  80 W6        30.01R WCI  29
MADISON        PTCLDY    35  27  72 W3        29.98R
6HR MIN TEMP:  34; 6HR MAX TEMP:  38;

MIDDLETON      PTCLDY    34  27  76 W6        30.00R WCI  29
6HR MIN TEMP:  33; 6HR MAX TEMP:  37;

WATERTOWN      CLEAR     33  28  83 W5        29.96S WCI  29
6HR MIN TEMP:  31; 6HR MAX TEMP:  37;

MONROE         PTCLDY    34  30  86 W15       30.01R WCI  24
JANESVILLE     CLEAR     36  28  75 CALM      30.01R
$$

WIZ051-052-058>065-066-070>072-301300-
SOUTHEAST WISCONSIN

CITY           SKY/WX    TMP DP  RH WIND       PRES   REMARKS
MILWAUKEE      CLEAR     37  27  67 W8        29.97R WCI  31
6HR MIN TEMP:  35; 6HR MAX TEMP:  42;

WAUKESHA       CLEAR     36  27  69 W7        29.97R WCI  30
MILWAUKEE/TIMM CLEAR     34  27  75 SW6       29.97R WCI  29
RACINE         CLEAR     35  27  72 W7        29.99R WCI  29
6HR MIN TEMP:  34; 6HR MAX TEMP:  39;

BURLINGTON     CLEAR     28  26  90 SW6       29.99R WCI  22
6HR MIN TEMP:  26; 6HR MAX TEMP:  33;

KENOSHA        CLEAR     32  27  81 W8        29.99R WCI  25
6HR MIN TEMP:  31; 6HR MAX TEMP:  38;

FOND DU LAC    CLEAR     33  26  75 SW7       29.94R WCI  27
6HR MIN TEMP:  32; 6HR MAX TEMP:  40;

SHEBOYGAN      CLEAR     37  27  67 W14       29.92R WCI  28
6HR MIN TEMP:  34; 6HR MAX TEMP:  38;

WEST BEND      CLEAR     34  27  75 W8        29.94S WCI  27
JUNEAU         CLEAR     29  26  85 SW7       29.97R WCI  22
6HR MIN TEMP:  28; 6HR MAX TEMP:  38;

$$

LSZ147-162-301300-
LAKE SUPERIOR

STATION/POSITION TIME  TEMP    WIND        PRES    WAVE
                       AIR SEA DIR/SP/G            HT/PER
                 (UTC) (F)     (DEG/KT/KT) (MB)    (FT/S)
DEVILS ISLAND    1200   36     260/ 14/ 16 1012.9R
PORT WING        1140   33     200/  6/  8 1013.2R
SAXON HARBOR     1100   31     190/  5/  7 1011.9R
$$

LMZ867-665-643>646-301300-
LAKE MICHIGAN

STATION/POSITION TIME  TEMP    WIND        PRES    WAVE
                       AIR SEA DIR/SP/G            HT/PER



USA.gov is the U.S. government's official web portal to all federal, state and local government web resources and services.